Wind_Speed
10 8 5 6 6 6 6 7 7 7 6 6 6 6 8 11 13 16 13 12 13 14 15 13 10 7 4 2 4 6 10 9 4 5 8 8 3 6 13 13 10 9 9 11 9
9 8 7 8 9 9 9 9 9 9 8 7 7 8 9 10 14 15 13 15 12 14 17 13 6 7 6 2 2 2 6 13 8 7 9 8 6 9 8 14 11 9 10 10 11
11 11 11 11 13 13 13 12 12 12 11 10 9 10 11 12 13 12 18 17 14 14 15 12 14 11 9 6 3 4 4 15 9 9 6 10 5 7 9 10 8 7 10 6 11
11 13 13 13 13 13 14 15 14 14 15 14 12 13 15 14 15 15 18 19 17 16 15 15 15 13 14 9 10 8 13 10 15 15 7 6 4 6 7 5 7 5 10 8 9
14 15 15 15 14 14 14 15 15 15 15 15 16 17 19 19 18 17 20 20 20 19 17 18 18 20 18 13 6 7 5 8 8 20 14 9 6 4 4 7 6 6 7 9 8
15 15 16 15 14 14 15 16 17 17 16 17 19 21 21 22 21 20 22 22 23 22 20 20 21 17 19 15 13 11 9 7 10 22 11 16 6 2 5 9 8 7 8 8 7
20 19 18 16 16 16 17 17 18 19 20 21 23 24 23 25 24 24 24 25 25 26 24 27 28 23 22 16 18 13 13 8 10 16 10 13 6 3 4 11 5 4 6 7 5
22 22 21 19 18 19 16 19 21 22 24 25 26 27 28 29 28 30 30 28 29 27 29 34 32 26 26 16 17 12 13 13 11 11 10 12 9 4 1 9 7 3 2 5 5
23 22 21 20 18 16 19 23 24 24 23 22 23 24 27 31 33 33 36 33 31 33 36 37 33 30 25 20 20 17 15 18 15 15 14 12 11 6 5 6 6 6 5 6 6
23 21 19 17 16 20 22 23 23 21 20 21 18 19 19 22 26 31 35 35 35 37 39 38 36 34 26 20 21 20 25 25 22 23 20 13 10 7 9 14 4 7 7 7 7
22 19 16 18 21 22 22 20 19 20 18 16 15 14 11 13 17 26 33 34 36 38 38 39 38 34 20 24 27 27 24 18 15 20 25 11 15 6 14 12 3 3 10 7 7
19 18 19 22 23 23 19 17 17 15 15 15 15 14 15 15 14 23 30 34 33 34 38 39 35 27 28 26 29 21 30 21 19 8 22 18 20 16 20 7 11 7 11 11 10
18 20 22 24 24 18 16 16 13 12 11 11 10 9 10 12 14 16 23 28 30 35 36 33 27 33 31 28 29 29 26 26 23 19 21 19 12 18 13 9 13 12 14 15 15
18 22 24 25 20 15 15 12 8 10 7 13 13 15 17 13 15 16 20 24 27 31 33 30 35 36 33 29 30 29 29 21 19 20 15 16 11 11 13 25 14 13 15 18 18
21 23 23 22 16 13 14 10 8 8 9 11 17 11 10 12 16 18 18 22 25 30 31 32 38 37 35 32 32 33 20 18 18 19 8 8 13 19 13 15 12 16 12 14 16
23 23 22 17 13 13 13 8 6 7 11 12 7 8 3 7 10 11 15 20 23 24 27 32 36 37 35 40 37 33 32 30 14 19 19 17 12 12 17 22 20 20 19 17 21
24 22 20 14 12 12 12 8 6 11 11 8 7 10 8 3 5 14 17 17 14 16 21 30 31 32 35 42 37 33 15 31 21 22 19 15 12 9 10 19 22 19 25 20 19
23 20 17 12 11 11 11 7 7 10 11 3 5 8 1 2 3 10 17 18 14 11 18 25 24 27 33 38 25 22 19 15 19 16 15 11 11 14 5 13 17 13 21 23 21
22 19 15 12 10 10 10 5 7 9 10 3 2 4 8 7 7 11 15 17 16 18 27 30 29 23 31 27 17 26 22 20 23 21 19 8 9 7 11 9 10 11 8 22 26
20 19 16 10 9 8 8 9 11 13 7 1 3 5 5 3 13 17 20 20 19 27 32 31 32 25 20 21 19 18 22 33 12 22 14 11 8 15 17 10 3 11 13 8 11
17 17 15 10 11 8 6 8 11 12 4 7 2 6 1 3 15 24 24 24 24 25 29 33 34 25 26 21 17 21 26 22 10 6 1 6 6 11 8 8 5 6 10 9 11
17 15 13 12 11 11 10 7 12 13 6 7 4 5 3 9 22 27 25 28 26 27 29 34 35 26 23 22 12 22 30 21 22 12 9 14 11 6 6 9 6 5 9 12 8
14 15 13 12 12 14 14 11 11 5 8 10 7 5 2 14 22 28 27 22 29 25 29 33 38 29 26 23 19 22 31 29 22 21 18 17 20 21 14 8 5 6 8 8 15
14 13 11 9 11 17 15 9 6 4 8 12 12 9 7 4 14 21 27 21 17 21 22 23 25 34 32 29 25 25 30 31 29 26 25 23 20 22 27 22 6 11 13 8 14
15 12 11 14 13 18 17 13 9 4 8 8 7 12 12 13 9 13 22 29 30 29 31 21 20 31 34 35 30 29 29 33 32 31 31 31 25 27 26 31 27 20 16 12 9
17 15 12 14 14 16 18 16 9 7 4 7 7 4 5 4 9 13 14 13 15 22 26 31 18 26 34 29 27 31 28 27 31 36 32 32 31 31 29 31 30 30 21 21 15
17 16 15 16 15 18 18 18 16 13 8 9 12 13 5 4 5 15 19 15 16 9 13 21 19 17 19 28 36 31 32 28 23 31 33 28 31 34 38 39 37 32 35 29 26
Wind_Direction
302 296 290 298 311 326 330 337 337 337 328 306 291 291 264 238 231 235 242 251 240 245 244 236 232 216 221 240 27 138 211 176 212 138 165 172 142 86 107 76 65 58 53 81 74
322 297 276 281 295 304 310 313 316 318 327 307 281 273 258 250 244 238 241 246 243 243 250 236 215 222 234 184 341 90 204 195 199 164 159 148 119 90 86 79 64 53 54 74 81
323 314 298 282 280 283 289 296 303 308 311 309 282 270 265 251 252 237 235 241 243 242 248 236 197 216 223 229 176 136 225 187 186 162 176 123 148 123 122 65 72 72 74 58 72
317 312 305 298 288 282 283 286 291 296 299 300 283 268 257 255 247 235 236 234 239 241 241 239 216 224 221 205 182 131 114 170 209 236 208 142 128 114 77 71 88 78 86 85 79
317 310 301 296 290 289 289 290 291 292 293 289 285 270 254 253 252 236 235 229 233 237 237 236 218 216 215 195 214 234 186 204 178 182 171 163 114 123 58 122 80 88 83 86 100
321 317 310 304 300 293 294 296 295 291 286 282 276 268 258 251 251 245 236 230 225 231 235 236 238 227 228 207 204 236 240 233 213 197 196 176 185 154 232 134 100 61 68 78 99
325 323 319 315 312 309 305 299 294 286 278 274 271 263 262 255 245 242 236 229 223 223 226 230 233 210 234 209 201 229 231 198 180 187 186 194 160 137 232 190 112 66 55 73 78
325 321 318 317 314 313 308 299 292 284 277 270 263 259 255 249 240 232 231 229 220 220 226 231 231 223 223 209 208 208 205 191 213 215 195 199 209 206 217 205 278 249 90 103 78
323 321 319 319 320 309 300 297 293 287 281 278 274 266 258 256 248 240 228 225 219 215 221 228 233 230 224 213 212 209 214 203 200 183 191 188 210 177 228 278 229 233 173 130 108
322 319 322 321 311 302 299 297 294 293 291 289 285 279 271 255 247 244 236 228 219 215 219 225 227 228 219 212 217 224 237 222 203 184 219 197 201 171 263 256 212 214 158 164 149
324 325 322 309 304 302 300 303 308 302 302 305 306 296 279 274 256 238 236 227 224 220 218 221 224 226 218 206 218 225 227 254 229 234 200 198 203 196 235 240 206 253 169 187 157
326 324 311 306 305 304 310 310 304 304 312 311 300 288 281 273 264 243 230 229 227 220 220 223 224 221 219 205 217 216 230 214 241 336 177 192 218 198 224 260 298 263 180 189 181
321 317 310 311 312 315 316 310 308 311 322 319 299 280 276 270 259 245 230 226 223 220 221 220 213 215 217 206 216 224 235 252 249 289 251 279 224 216 229 248 279 169 190 184 183
317 317 314 318 318 314 309 309 324 335 328 318 298 287 286 261 239 231 221 215 216 217 215 209 208 211 214 213 212 223 238 247 241 260 269 274 266 221 285 220 231 176 178 173 178
322 320 320 324 316 312 309 317 351 352 324 322 311 304 276 233 226 213 210 212 207 213 212 202 205 205 212 215 218 224 219 212 258 246 254 273 300 268 286 221 218 183 181 184 183
326 323 327 321 315 314 312 336 349 351 330 324 5 6 37 231 219 201 197 203 197 207 208 201 204 206 211 216 218 230 222 232 235 255 255 265 304 283 278 228 227 198 194 177 182
325 328 328 324 315 315 309 318 343 349 349 332 58 62 72 8 221 188 187 186 188 203 200 197 202 202 215 222 209 234 239 224 240 255 240 255 286 254 234 221 222 219 209 194 193
330 331 330 320 316 315 305 322 350 333 336 51 65 84 28 158 247 208 189 164 163 176 188 188 190 199 221 222 231 237 234 218 214 202 201 221 223 231 240 193 196 211 199 201 202
333 332 330 324 306 305 307 303 310 306 310 196 148 198 235 234 206 192 164 152 142 163 177 180 178 187 214 216 212 230 225 226 194 197 169 163 193 213 203 86 127 116 172 208 211
339 335 332 320 296 294 300 306 303 310 296 36 14 17 356 301 197 170 161 152 165 174 181 182 193 192 191 200 209 222 240 235 204 156 134 160 167 164 164 159 235 184 160 165 161
339 336 328 304 295 282 297 302 309 286 350 332 330 352 38 132 185 173 165 171 180 180 184 182 193 192 198 194 219 220 228 248 269 283 235 150 133 191 172 127 216 161 204 210 214
335 329 321 299 280 270 252 285 308 287 309 307 273 309 257 162 184 178 177 186 190 187 189 193 188 187 198 200 186 213 226 230 224 219 189 252 251 241 199 172 148 212 217 235 223
330 326 318 301 278 272 268 285 299 294 352 318 291 290 265 187 185 188 196 194 199 195 199 197 199 190 192 195 209 221 218 225 206 221 229 242 251 252 266 272 235 189 204 224 234
307 310 303 285 284 278 275 275 235 279 344 316 302 270 225 225 219 215 210 212 233 225 211 207 201 203 206 205 210 213 216 223 223 218 223 234 238 247 250 250 250 254 260 229 224
295 291 282 273 276 276 271 270 296 324 335 331 326 306 295 256 230 215 219 224 232 229 231 225 225 200 209 208 212 215 217 221 222 222 225 229 231 239 246 254 246 259 252 235 209
282 283 272 262 259 269 271 277 275 314 297 7 335 339 332 316 258 245 202 214 227 233 220 214 213 225 211 211 211 218 217 224 229 226 232 236 232 237 243 245 250 239 255 226 197
273 272 269 260 248 260 272 276 281 305 293 298 305 308 295 259 247 238 251 266 213 237 235 212 220 219 239 221 217 225 215 215 230 231 234 231 235 237 239 243 246 245 243 241 238
Height
5885 5884 5883 5882 5880 5879 5877 5876 5875 5873 5872 5871 5870 5870 5869 5868 5869 5870 5871 5873 5873 5873 5873 5875 5877 5878 5879 5879 5878 5878 5880 5881 5885 5884 5886 5888 5889 5889 5888 5889 5890 5889 5888 5888 5889
5883 5881 5880 5880 5878 5877 5876 5875 5873 5872 5871 5870 5869 5868 5867 5866 5866 5868 5871 5870 5872 5872 5872 5875 5876 5878 5879 5878 5878 5879 5880 5882 5887 5886 5887 5889 5889 5890 5890 5890 5891 5890 5889 5890 5891
5881 5879 5878 5876 5875 5874 5873 5872 5871 5870 5869 5868 5867 5866 5865 5864 5864 5866 5867 5868 5869 5870 5872 5875 5876 5877 5876 5877 5877 5877 5880 5883 5884 5885 5887 5889 5891 5890 5891 5891 5893 5892 5890 5891 5891
5879 5877 5875 5873 5872 5870 5869 5868 5868 5867 5866 5865 5864 5863 5862 5861 5863 5862 5864 5866 5867 5869 5870 5872 5874 5874 5875 5877 5879 5880 5881 5883 5883 5884 5887 5888 5890 5890 5890 5893 5895 5895 5894 5894 5893
5876 5874 5872 5869 5868 5867 5865 5865 5864 5863 5862 5861 5860 5859 5858 5858 5858 5859 5860 5863 5864 5866 5868 5868 5871 5873 5875 5876 5879 5880 5882 5881 5881 5883 5887 5889 5889 5890 5891 5892 5894 5897 5896 5895 5894
5873 5870 5868 5865 5864 5863 5862 5860 5859 5858 5857 5857 5856 5854 5854 5855 5854 5855 5856 5858 5860 5862 5865 5866 5867 5871 5873 5876 5878 5880 5880 5879 5879 5883 5886 5887 5889 5890 5893 5893 5894 5895 5896 5896 5896
5869 5865 5863 5861 5859 5858 5856 5855 5853 5852 5851 5851 5850 5849 5849 5849 5850 5851 5852 5854 5856 5858 5860 5860 5862 5868 5870 5876 5875 5878 5880 5880 5880 5883 5885 5887 5888 5890 5890 5892 5894 5895 5896 5897 5898
5865 5862 5859 5857 5855 5853 5851 5849 5847 5845 5844 5843 5842 5841 5841 5841 5841 5843 5846 5847 5851 5854 5854 5853 5857 5863 5866 5873 5874 5877 5878 5880 5881 5883 5885 5885 5887 5888 5890 5893 5894 5895 5896 5898 5898
5861 5858 5855 5852 5850 5848 5845 5843 5840 5838 5836 5835 5834 5833 5834 5834 5834 5837 5838 5841 5844 5846 5847 5848 5854 5858 5864 5869 5873 5875 5877 5877 5880 5878 5882 5884 5885 5886 5886 5890 5892 5894 5895 5897 5898
5857 5854 5850 5848 5845 5842 5839 5836 5834 5832 5830 5828 5827 5828 5827 5827 5828 5829 5832 5836 5837 5839 5842 5846 5850 5854 5862 5868 5869 5871 5872 5870 5865 5874 5877 5881 5883 5884 5886 5885 5889 5893 5895 5896 5898
5853 5850 5847 5844 5840 5837 5834 5832 5831 5828 5825 5824 5822 5820 5820 5820 5822 5822 5824 5827 5831 5834 5839 5842 5846 5852 5863 5863 5863 5864 5867 5869 5871 5871 5871 5876 5881 5882 5882 5884 5886 5889 5893 5895 5897
5850 5847 5844 5840 5836 5833 5831 5828 5825 5823 5821 5818 5817 5815 5814 5815 5816 5816 5819 5822 5828 5832 5834 5840 5846 5854 5856 5860 5861 5863 5863 5864 5863 5862 5864 5869 5874 5877 5879 5879 5884 5887 5890 5893 5896
5847 5843 5840 5836 5832 5830 5828 5824 5821 5819 5817 5815 5814 5812 5810 5811 5811 5812 5815 5818 5823 5826 5831 5839 5850 5848 5850 5855 5858 5860 5863 5864 5864 5863 5864 5868 5872 5875 5877 5878 5884 5884 5887 5890 5894
5843 5839 5836 5832 5830 5827 5824 5821 5819 5815 5814 5814 5812 5809 5807 5806 5806 5807 5810 5813 5818 5823 5828 5837 5840 5844 5847 5853 5854 5859 5860 5862 5864 5866 5867 5870 5872 5873 5877 5880 5883 5883 5886 5889 5892
5840 5836 5832 5828 5826 5824 5822 5819 5816 5814 5815 5812 5808 5805 5802 5803 5802 5803 5807 5809 5813 5818 5826 5833 5834 5839 5844 5850 5853 5858 5858 5860 5864 5864 5868 5870 5870 5872 5874 5877 5879 5882 5884 5887 5891
5837 5833 5829 5826 5823 5822 5819 5817 5816 5816 5813 5810 5807 5804 5803 5802 5802 5805 5806 5808 5811 5816 5823 5828 5832 5837 5844 5840 5849 5851 5855 5858 5861 5862 5866 5867 5870 5870 5869 5871 5875 5878 5884 5885 5888
5834 5830 5826 5823 5821 5819 5817 5815 5815 5812 5812 5810 5807 5805 5804 5803 5804 5804 5806 5808 5813 5817 5822 5826 5832 5838 5838 5835 5841 5847 5851 5855 5859 5861 5864 5866 5869 5869 5868 5869 5874 5875 5880 5883 5886
5831 5827 5824 5821 5819 5817 5816 5815 5812 5811 5810 5809 5807 5806 5806 5806 5806 5806 5807 5808 5812 5817 5823 5828 5834 5837 5836 5839 5846 5853 5854 5854 5856 5858 5862 5864 5868 5869 5871 5870 5872 5875 5876 5879 5885
5828 5825 5822 5820 5817 5816 5814 5812 5811 5811 5809 5807 5805 5806 5806 5806 5807 5807 5808 5810 5812 5816 5823 5827 5830 5831 5834 5842 5844 5848 5850 5854 5853 5856 5858 5862 5866 5868 5871 5872 5873 5875 5876 5878 5882
5826 5822 5820 5818 5815 5813 5813 5811 5809 5808 5807 5805 5805 5805 5804 5803 5806 5806 5807 5810 5811 5812 5818 5825 5829 5833 5835 5839 5841 5847 5848 5848 5849 5854 5856 5861 5864 5866 5868 5873 5875 5874 5877 5879 5881
5823 5820 5818 5816 5814 5813 5812 5810 5808 5807 5805 5805 5806 5806 5805 5805 5806 5806 5807 5809 5812 5815 5818 5822 5827 5832 5835 5837 5841 5843 5845 5846 5847 5851 5856 5860 5864 5866 5870 5873 5873 5875 5878 5881 5884
5819 5818 5815 5813 5813 5811 5810 5809 5808 5807 5804 5804 5805 5806 5805 5805 5806 5806 5807 5809 5810 5813 5817 5821 5824 5829 5833 5837 5839 5839 5840 5845 5849 5853 5856 5860 5865 5866 5867 5871 5872 5874 5875 5876 5879
5816 5814 5812 5811 5810 5809 5807 5806 5806 5805 5803 5802 5802 5804 5806 5807 5807 5806 5806 5811 5811 5814 5816 5819 5823 5827 5831 5835 5834 5834 5838 5841 5847 5852 5856 5858 5861 5864 5866 5868 5871 5871 5873 5872 5874
5812 5810 5808 5807 5806 5805 5805 5805 5804 5803 5804 5801 5800 5802 5804 5806 5807 5808 5807 5808 5809 5811 5815 5818 5820 5826 5829 5829 5828 5831 5835 5838 5843 5848 5853 5855 5858 5858 5862 5864 5867 5869 5873 5871 5870
5808 5806 5805 5803 5803 5803 5802 5803 5803 5802 5802 5800 5799 5798 5800 5802 5804 5804 5805 5805 5807 5809 5811 5816 5818 5819 5822 5825 5826 5829 5832 5836 5839 5843 5847 5852 5855 5856 5858 5860 5865 5868 5869 5870 5870
5805 5803 5801 5801 5801 5800 5798 5799 5802 5800 5801 5800 5798 5798 5798 5797 5800 5800 5800 5801 5802 5803 5802 5810 5815 5816 5817 5815 5821 5825 5829 5833 5836 5839 5842 5846 5850 5852 5854 5857 5859 5864 5866 5868 5867
5798 5798 5797 5797 5797 5795 5795 5796 5795 5797 5798 5798 5797 5796 5797 5796 5796 5797 5798 5798 5800 5801 5803 5805 5809 5814 5816 5812 5818 5823 5825 5828 5832 5835 5837 5841 5843 5844 5846 5850 5853 5857 5860 5863 5863